Chatel, France 16 day weather forecast

Slopes altitude range 1100 m - 2205m

Number of lifts: 197 Pistes: 650km

In some cases the lift and piste totals shown are for the ski domain (e.g. Three Valleys) rather than individual resort (e.g. Courchevel)

Overview

The 16 day weather forecast is fully updated 4 times every day.

    • Sun 17 FEB 2019
    • Sun 17
    • -3C 10C
    • Mon 18 FEB 2019
    • Mon 18
    • -1C 8C
    • Tue 19 FEB 2019
    • Tue 19
    • -1C 7C
    • Wed 20 FEB 2019
    • Wed 20
    • -1C 8C
    • Thu 21 FEB 2019
    • Thu 21
    • 0C 8C
    • Fri 22 FEB 2019
    • Fri 22
    • 0C 8C
    • Sat 23 FEB 2019
    • Sat 23
    • -1C 8C
    • Sun 24 FEB 2019
    • Sun 24
    • 0C 10C
    • Mon 25 FEB 2019
    • Mon 25
    • 2C 12C
    • Tue 26 FEB 2019
    • Tue 26
    • 3C 11C
    • Wed 27 FEB 2019
    • Wed 27
    • 1C 14C
    • Thu 28 FEB 2019
    • Thu 28
    • 3C 15C
    • Fri 01 MAR 2019
    • Fri 01
    • 1C 14C
    • Sat 02 MAR 2019
    • Sat 02
    • 2C 10C
    • Sun 03 MAR 2019
    • Sun 03
    • 1C 14C
    • Mon 04 MAR 2019
    • Mon 04
    • 3C 13C

Date:

Time Type 0°C level Temp Chill Snow Cloud Speed Gust Dir Press
12:00 2905m 10°C 10_1 0cm 0% 1mph 2mph 1025mB
15:00 2817m 10°C 10_1 0cm 0% 1mph 1mph 1023mB
18:00 2818m 10°C 10_4 0cm 0% 4mph 5mph 1025mB
21:00 2842m 1°C 1_5 0cm 0% 5mph 5mph 1026mB
0:00 1563m 0°C 0_5 0cm 0% 5mph 5mph 1026mB
3:00 1453m -1°C -1_5 0cm 0% 5mph 5mph 1025mB
6:00 1200m -1°C -1_5 0cm 0% 5mph 5mph 1025mB
9:00 2703m -1°C -1_3 0cm 0% 3mph 4mph 1024mB
12:00 2647m 8°C 8_3 0cm 0% 3mph 4mph 1022mB
15:00 2537m 8°C 8_2 0cm 60% 2mph 3mph 1020mB
18:00 2419m 8°C 8_3 0cm 75% 3mph 4mph 1023mB
21:00 1810m 0°C 0_4 0cm 79% 4mph 5mph 1024mB
0:00 1359m 0°C 0_4 0cm 75% 4mph 5mph 1024mB
3:00 1247m -1°C -1_4 0cm 78% 4mph 5mph 1024mB
6:00 1065m -1°C -1_5 0cm 79% 5mph 5mph 1024mB
9:00 1780m -1°C -1_2 0cm 88% 2mph 4mph 1024mB
12:00 1795m 7°C 7_2 0cm 65% 2mph 3mph 1023mB
15:00 1938m 7°C 7_2 0cm 40% 2mph 2mph 1022mB
18:00 1582m 7°C 7_3 0cm 20% 3mph 4mph 1024mB
21:00 1284m 0°C 0_4 0cm 0% 4mph 5mph 1025mB
0:00 1241m -1°C -1_4 0cm 10% 4mph 5mph 1025mB
3:00 1085m -1°C -1_4 0cm 49% 4mph 5mph 1025mB
6:00 1070m -1°C -1_4 0cm 67% 4mph 5mph 1026mB
9:00 1899m -1°C -1_3 0cm 94% 3mph 4mph 1026mB
12:00 1978m 8°C 8_2 0cm 84% 2mph 2mph 1025mB
15:00 1936m 8°C 8_2 0cm 7% 2mph 3mph 1024mB
18:00 1937m 8°C 8_3 0cm 30% 3mph 4mph 1027mB
21:00 1663m 1°C 1_4 0cm 82% 4mph 5mph 1028mB
0:00 1634m 0°C 0_4 0cm 80% 4mph 5mph 1029mB
3:00 1350m 0°C 0_4 0cm 35% 4mph 5mph 1029mB
6:00 1325m 0°C 0_4 0cm 41% 4mph 5mph 1030mB
9:00 2077m 0°C 0_2 0cm 82% 2mph 3mph 1030mB
12:00 2247m 8°C 8_2 0cm 84% 2mph 2mph 1028mB
15:00 2176m 8°C 8_2 0cm 94% 2mph 3mph 1028mB
18:00 2274m 8°C 8_3 0cm 95% 3mph 3mph 1030mB
21:00 2286m 1°C 1_4 0cm 14% 4mph 5mph 1031mB
0:00 2459m 1°C 1_4 0cm 7% 4mph 5mph 1032mB
3:00 1460m 0°C 0_4 0cm 41% 4mph 4mph 1031mB
6:00 1405m 0°C 0_4 0cm 25% 4mph 5mph 1032mB
9:00 2356m 0°C 0_4 0cm 0% 4mph 7mph 1031mB
12:00 2597m 8°C 8_8 0cm 0% 8mph 14mph 1029mB
15:00 2692m 8°C 8_9 0cm 0% 9mph 16mph 1028mB
18:00 2834m 8°C 8_7 0cm 0% 7mph 13mph 1030mB
21:00 3054m 1°C 1_6 0cm 0% 6mph 10mph 1031mB
0:00 1782m 0°C 0_6 0cm 0% 6mph 8mph 1031mB
3:00 1717m 0°C 0_4 0cm 0% 4mph 5mph 1032mB
6:00 1360m -1°C -1_3 0cm 0% 3mph 4mph 1033mB
9:00 3349m -1°C -1_2 0cm 1% 2mph 3mph 1034mB
12:00 3348m 8°C 8_3 0cm 0% 3mph 3mph 1032mB
15:00 3288m 8°C 8_4 0cm 0% 4mph 6mph 1032mB
18:00 3386m 8°C 8_4 0cm 0% 4mph 5mph 1034mB
21:00 3449m 1°C 1_3 0cm 29% 3mph 4mph 1035mB
0:00 3428m 1°C 1_3 0cm 15% 3mph 4mph 1036mB
3:00 2497m 0°C 0_3 0cm 1% 3mph 4mph 1037mB
6:00 2360m 0°C 0_4 0cm 1% 4mph 5mph 1038mB
9:00 3177m 0°C 0_2 0cm 0% 2mph 3mph 1038mB
12:00 3274m 10°C 10_3 0cm 0% 3mph 3mph 1036mB
15:00 3340m 10°C 10_2 0cm 0% 2mph 4mph 1035mB
18:00 3554m 10°C 10_3 0cm 0% 3mph 4mph 1037mB
21:00 3454m 4°C 4_4 0cm 0% 4mph 5mph 1038mB
0:00 3519m 3°C 3_3 0cm 0% 3mph 3mph 1038mB
3:00 3532m 2°C 2_3 0cm 0% 3mph 4mph 1037mB
6:00 3446m 2°C 2_3 0cm 0% 3mph 4mph 1037mB
9:00 3463m 2°C 2_4 0cm 0% 4mph 6mph 1036mB
12:00 3495m 12°C 12_6 0cm 0% 6mph 10mph 1034mB
15:00 3466m 13°C 13_7 0cm 0% 7mph 12mph 1033mB
18:00 3405m 13°C 13_5 0cm 0% 5mph 7mph 1034mB
21:00 3291m 5°C 5_5 0cm 0% 5mph 6mph 1034mB
0:00 3135m 4°C 4_6 0cm 0% 6mph 7mph 1033mB
3:00 3016m 3°C 3_6 0cm 0% 6mph 9mph 1032mB
6:00 3002m 3°C 3_7 0cm 0% 7mph 13mph 1031mB
9:00 3202m 3°C 3_10 0cm 0% 10mph 21mph 1030mB
12:00 3269m 11°C 11_12 0cm 0% 12mph 22mph 1028mB
15:00 3231m 12°C 12_11 0cm 0% 11mph 21mph 1027mB
18:00 3194m 12°C 12_7 0cm 0% 7mph 20mph 1029mB
21:00 3172m 4°C 4_5 0cm 0% 5mph 8mph 1030mB
0:00 3234m 2°C 2_4 0cm 0% 4mph 5mph 1031mB
3:00 3227m 2°C 2_3 0cm 0% 3mph 4mph 1031mB
6:00 3187m 1°C 1_3 0cm 0% 3mph 3mph 1032mB
Afternoon 0mm 0 3064m 14°C 14_2 0cm 0% 2mph 2mph 1032mB
Morning 0mm 0 3147m 3°C 3_4 0cm 5% 4mph 5mph 1034mB
Afternoon 0mm 0 3144m 15°C 15_3 0cm 16% 3mph 4mph 1032mB
Morning 0mm 0 3088m 2°C 2_1 0cm 0% 1mph 2mph 1031mB
Afternoon 0mm 0 2878m 14°C 14_1 0cm 0% 1mph 2mph 1029mB
Morning 0mm 0 2336m 2°C 2_2 0cm 0% 2mph 3mph 1034mB
Afternoon 0.00520833mm 0 2320m 10°C 10_5 0cm 35% 5mph 13mph 1036mB
Morning 0mm 0 2520m 1°C 1_3 0cm 65% 3mph 4mph 1037mB
Afternoon 0mm 0 2302m 14°C 14_2 0cm 66% 2mph 3mph 1033mB
Morning 0mm 0 2175m 3°C 3_5 0cm 63% 5mph 6mph 1032mB
Afternoon 0mm 0 2102m 13°C 13_5 0cm 0% 5mph 6mph 1027mB
Morning 0.114583mm 1 1776m 5°C 5_8 0cm 40% 8mph 20mph 1027mB

16 day outlook at a glance

Forecast issued: 2/17/2019 1:41:51 PM

Chat

Your comments and questions. In a resort? Let us know what it's like!


Characters left 250

For terms and conditions see Readers Comments on the Cookie and privacy policy page.